Location: ??????????
(41.2581°N, 22.8006°E)
Time: 16:48:57
(UTC+00:00)

Cosmos 1726 Rocket - Pass Details

Date: 13 December 2025
Orbit: 553 x 663 km, 82.5° (Epoch: 16 January)

Event Time Altitude Azimuth Distance (km) Brightness Sun altitude
Rises 15:29:34 0° 168° (SSE) 2,984 7.3 -5.7°
Reaches altitude 10° 15:31:55 10° 161° (SSE) 2,075 6.4 -6.1°
Maximum altitude 15:36:15 41° 92° (E) 953 4.1 -6.8°
Drops below altitude 10° 15:40:34 10° 22° (NNE) 2,064 5.8 -7.6°
Sets 15:42:54 0° 16° (NNE) 2,966 6.7 -8.0°
